Location: Riverton
(43.0250°N, 108.3790°W)
Time: 13:56:54
(UTC-06:00)

JAS-2 - Visible Passes

Search period start: 21 October 2014 00:00
Search period end: 31 October 2014 00:00
Orbit: 801 x 1321 km, 98.5° (Epoch: 20 October)

Date Brightness Start Highest point End Pass type
(mag) Time Alt. Az. Time Alt. Az. Time Alt. Az.
21 Oct 12.8 05:08:06 10° NE 05:12:26 16° E 05:16:48 10° ESE visible
21 Oct 10.4 06:50:44 10° NNE 06:58:26 78° ESE 07:06:18 10° S visible
21 Oct 11.3 18:49:36 10° SSW 18:54:56 38° W 19:00:56 10° NNW visible
22 Oct 11.7 05:56:17 10° NNE 06:03:16 36° E 06:10:18 10° SSE visible
22 Oct 12.7 19:42:31 10° WSW 19:45:48 15° W 19:49:18 10° NW visible
23 Oct 12.9 05:03:33 10° NE 05:07:34 15° E 05:11:35 10° ESE visible
23 Oct 10.5 06:45:54 10° NNE 06:53:40 74° ESE 07:01:30 10° S visible
23 Oct 11.1 18:44:29 10° SSW 18:49:59 41° W 18:56:13 10° NNW visible
24 Oct 11.8 05:51:32 10° NNE 05:58:27 34° E 06:05:21 10° SSE visible
24 Oct 12.6 19:37:06 10° SW 19:40:50 17° W 19:44:51 10° NW visible
25 Oct 12.9 04:59:05 10° NE 05:02:42 14° E 05:06:18 10° ESE visible
25 Oct 10.5 06:41:06 10° NNE 06:48:54 71° ESE 06:56:40 10° S visible
25 Oct 11.0 18:39:23 10° SSW 18:45:04 45° W 18:51:31 10° NNW visible
26 Oct 11.9 05:46:48 10° NNE 05:53:38 32° E 06:00:23 10° SSE visible
26 Oct 12.5 19:31:44 10° SW 19:35:52 19° W 19:40:20 10° NW visible
27 Oct 13.0 04:54:42 10° ENE 04:57:49 13° E 05:00:55 10° ESE visible
27 Oct 10.6 06:36:18 10° NNE 06:44:07 67° E 06:51:50 10° S visible
27 Oct 10.9 18:34:18 10° S 18:40:09 49° W 18:46:48 10° NNW visible
28 Oct 12.0 05:42:06 10° NNE 05:48:49 30° E 05:55:24 10° SSE visible
28 Oct 12.4 19:26:26 10° SW 19:30:55 20° W 19:35:47 10° NW visible
29 Oct 13.0 04:50:28 10° ENE 04:52:56 12° E 04:55:23 10° E visible
29 Oct 10.7 06:31:32 10° NNE 06:39:21 64° E 06:46:58 10° S visible
29 Oct 10.7 18:29:14 10° S 18:35:14 53° W 18:42:06 10° NNW visible
30 Oct 12.1 05:37:24 10° NE 05:43:59 28° E 05:50:23 10° SSE visible
30 Oct 12.3 19:21:10 10° SW 19:25:58 22° W 19:31:13 10° NW visible
